| time (UTC) | temp C | wind direction | speed KPH | gust KPH | rain 1hr cm | rain 24hr cm | rain mn cm | humidity % | barometer mb |
| 20260507052003 | 12 | 178 | 4.8 | 9.7 | 0.00 | 0.00 | 0.00 | 37 | 1020.2 |
| 20260507051003 | 13 | 178 | 4.8 | 12.9 | 0.00 | 0.00 | 0.00 | 36 | 1020.1 |
| 20260507045002 | 13 | 178 | 3.2 | 6.4 | 0.00 | 0.00 | 0.00 | 35 | 1020.0 |
| 20260507044001 | 14 | 178 | 3.2 | 6.4 | 0.00 | 0.00 | 0.00 | 34 | 1020.0 |
| 20260507043001 | 14 | 178 | 1.6 | 4.8 | 0.00 | 0.00 | 0.00 | 34 | 1019.9 |
| 20260507041003 | 15 | 178 | 1.6 | 4.8 | 0.00 | 0.00 | 0.00 | 33 | 1019.7 |
| 20260507040003 | 15 | 178 | 1.6 | 6.4 | 0.00 | 0.00 | 0.00 | 33 | 1019.5 |
| 20260507035001 | 15 | 178 | 1.6 | 6.4 | 0.00 | 0.00 | 0.00 | 32 | 1019.4 |
| 20260507034003 | 16 | 178 | 1.6 | 4.8 | 0.00 | 0.00 | 0.00 | 31 | 1019.2 |
| 20260507033004 | 16 | 178 | 1.6 | 6.4 | 0.00 | 0.00 | 0.00 | 31 | 1018.9 |
| 20260507032003 | 16 | 178 | 4.8 | 9.7 | 0.00 | 0.00 | 0.00 | 31 | 1018.7 |
| 20260507030003 | 17 | 178 | 4.8 | 12.9 | 0.00 | 0.00 | 0.00 | 30 | 1018.4 |
| 20260507025003 | 17 | 178 | 8.0 | 14.5 | 0.00 | 0.00 | 0.00 | 29 | 1018.1 |
| 20260507024003 | 17 | 178 | 6.4 | 14.5 | 0.00 | 0.00 | 0.00 | 29 | 1018.0 |
| 20260507023003 | 18 | 178 | 8.0 | 16.1 | 0.00 | 0.00 | 0.00 | 29 | 1018.0 |
| 20260507022003 | 18 | 178 | 8.0 | 14.5 | 0.00 | 0.00 | 0.00 | 28 | 1017.9 |
| 20260507020004 | 19 | 178 | 12.9 | 20.9 | 0.00 | 0.00 | 0.00 | 27 | 1017.8 |
| 20260507015001 | 19 | 178 | 12.9 | 20.9 | 0.00 | 0.00 | 0.00 | 27 | 1017.8 |
| 20260507014002 | 20 | 178 | 14.5 | 27.4 | 0.00 | 0.00 | 0.00 | 27 | 1017.6 |
| 20260507013004 | 20 | 178 | 14.5 | 20.9 | 0.00 | 0.00 | 0.00 | 26 | 1017.6 |
| 20260507012001 | 21 | 178 | 12.9 | 25.7 | 0.00 | 0.00 | 0.00 | 26 | 1017.6 |
| 20260507011001 | 21 | 178 | 8.0 | 16.1 | 0.00 | 0.00 | 0.00 | 25 | 1017.5 |
| 20260507010005 | 22 | 178 | 8.0 | 17.7 | 0.00 | 0.00 | 0.00 | 24 | 1017.5 |
| 20260507005003 | 23 | 178 | 9.7 | 19.3 | 0.00 | 0.00 | 0.00 | 22 | 1017.2 |
| 20260507004004 | 23 | 178 | 11.3 | 27.4 | 0.00 | 0.00 | 0.00 | 21 | 1017.0 |
| 20260507003004 | 23 | 178 | 8.0 | 25.7 | 0.00 | 0.00 | 0.00 | 21 | 1016.8 |
| 20260507001003 | 23 | 178 | 9.7 | 24.1 | 0.00 | 0.00 | 0.00 | 20 | 1016.6 |
| 20260507000005 | 23 | 178 | 11.3 | 29.0 | 0.00 | 0.00 | 0.00 | 21 | 1016.5 |
| 20260506235003 | 23 | 178 | 8.0 | 19.3 | 0.00 | 0.00 | 0.00 | 20 | 1016.5 |
| 20260506234003 | 22 | 178 | 3.2 | 12.9 | 0.00 | 0.00 | 0.00 | 21 | 1016.6 |
| 20260506233003 | 23 | 178 | 8.0 | 19.3 | 0.00 | 0.00 | 0.00 | 20 | 1016.6 |
| 20260506232004 | 23 | 178 | 8.0 | 24.1 | 0.00 | 0.00 | 0.00 | 20 | 1016.6 |
| 20260506230004 | 23 | 178 | 4.8 | 14.5 | 0.00 | 0.00 | 0.00 | 21 | 1016.8 |
| 20260506225002 | 23 | 178 | 6.4 | 19.3 | 0.00 | 0.00 | 0.00 | 21 | 1016.9 |
| 20260506224004 | 23 | 178 | 3.2 | 16.1 | 0.00 | 0.00 | 0.00 | 21 | 1017.0 |
| 20260506223003 | 22 | 178 | 4.8 | 20.9 | 0.00 | 0.00 | 0.00 | 21 | 1017.0 |
| 20260506222003 | 22 | 178 | 4.8 | 17.7 | 0.00 | 0.00 | 0.00 | 21 | 1017.2 |
| 20260506221004 | 22 | 178 | 4.8 | 20.9 | 0.00 | 0.00 | 0.00 | 22 | 1017.4 |
| 20260506220004 | 21 | 178 | 8.0 | 27.4 | 0.00 | 0.00 | 0.00 | 22 | 1017.6 |
| 20260506215003 | 21 | 178 | 4.8 | 16.1 | 0.00 | 0.00 | 0.00 | 23 | 1017.7 |
| 20260506214002 | 22 | 178 | 6.4 | 19.3 | 0.00 | 0.00 | 0.00 | 22 | 1018.0 |
| 20260506213004 | 22 | 178 | 4.8 | 16.1 | 0.00 | 0.00 | 0.00 | 21 | 1018.0 |
| 20260506212003 | 23 | 178 | 6.4 | 16.1 | 0.00 | 0.00 | 0.00 | 21 | 1018.1 |
| 20260506210004 | 23 | 178 | 11.3 | 22.5 | 0.00 | 0.00 | 0.00 | 21 | 1018.1 |
| 20260506205003 | 22 | 178 | 6.4 | 22.5 | 0.00 | 0.00 | 0.00 | 22 | 1018.3 |
| 20260506204002 | 22 | 178 | 4.8 | 17.7 | 0.00 | 0.00 | 0.00 | 22 | 1018.3 |
| 20260506202003 | 21 | 178 | 1.6 | 6.4 | 0.00 | 0.00 | 0.00 | 23 | 1018.5 |
| 20260506200004 | 20 | 178 | 8.0 | 22.5 | 0.00 | 0.00 | 0.00 | 24 | 1018.7 |
| 20260506195002 | 20 | 178 | 8.0 | 20.9 | 0.00 | 0.00 | 0.00 | 24 | 1018.8 |
| 20260506192002 | 20 | 178 | 3.2 | 12.9 | 0.00 | 0.00 | 0.00 | 25 | 1018.9 |
| 20260506191001 | 20 | 178 | 8.0 | 25.7 | 0.00 | 0.00 | 0.00 | 24 | 1019.1 |
| 20260506190005 | 20 | 178 | 6.4 | 16.1 | 0.00 | 0.00 | 0.00 | 24 | 1019.1 |
| 20260506185004 | 19 | 178 | 4.8 | 19.3 | 0.00 | 0.00 | 0.00 | 26 | 1019.1 |
| 20260506183002 | 19 | 178 | 3.2 | 12.9 | 0.00 | 0.00 | 0.00 | 26 | 1019.3 |
| 20260506182003 | 18 | 178 | 8.0 | 22.5 | 0.00 | 0.00 | 0.00 | 26 | 1019.5 |
| 20260506181003 | 17 | 178 | 4.8 | 19.3 | 0.00 | 0.00 | 0.00 | 27 | 1019.4 |
| 20260506180005 | 17 | 178 | 3.2 | 17.7 | 0.00 | 0.00 | 0.00 | 27 | 1019.3 |
| 20260506175002 | 16 | 178 | 3.2 | 12.9 | 0.00 | 0.00 | 0.00 | 29 | 1019.4 |
| 20260506173002 | 16 | 178 | 3.2 | 16.1 | 0.00 | 0.00 | 0.00 | 30 | 1019.4 |
| 20260506172002 | 16 | 178 | 3.2 | 16.1 | 0.00 | 0.00 | 0.00 | 30 | 1019.4 |
| 20260506171026 | 16 | 178 | 4.8 | 14.5 | 0.00 | 0.00 | 0.00 | 31 | 1019.3 |
| 20260506170001 | 15 | 178 | 3.2 | 12.9 | 0.00 | 0.00 | 0.00 | 32 | 1019.2 |
| 20260506165002 | 15 | 178 | 1.6 | 6.4 | 0.00 | 0.00 | 0.00 | 32 | 1019.3 |
| 20260506164003 | 14 | 178 | 3.2 | 12.9 | 0.00 | 0.00 | 0.00 | 33 | 1019.1 |
| 20260506163001 | 14 | 178 | 3.2 | 12.9 | 0.00 | 0.00 | 0.00 | 33 | 1019.1 |
| 20260506162001 | 13 | 178 | 1.6 | 9.7 | 0.00 | 0.00 | 0.00 | 34 | 1019.0 |
| 20260506161002 | 13 | 178 | 3.2 | 9.7 | 0.00 | 0.00 | 0.00 | 35 | 1019.1 |
| 20260506160001 | 13 | 178 | 4.8 | 12.9 | 0.00 | 0.00 | 0.00 | 36 | 1018.9 |
| 20260506155001 | 12 | 178 | 3.2 | 8.0 | 0.00 | 0.00 | 0.00 | 38 | 1018.9 |
| 20260506154001 | 12 | 178 | 3.2 | 8.0 | 0.00 | 0.00 | 0.00 | 39 | 1018.8 |
| 20260506152003 | 12 | 178 | 3.2 | 8.0 | 0.00 | 0.00 | 0.00 | 41 | 1018.7 |
| 20260506151002 | 11 | 178 | 3.2 | 6.4 | 0.00 | 0.00 | 0.00 | 43 | 1018.7 |
| 20260506150002 | 11 | 178 | 3.2 | 9.7 | 0.00 | 0.00 | 0.00 | 43 | 1018.6 |
| 20260506145001 | 11 | 178 | 1.6 | 6.4 | 0.00 | 0.00 | 0.00 | 44 | 1018.5 |
| 20260506144002 | 10 | 178 | 1.6 | 4.8 | 0.00 | 0.00 | 0.00 | 45 | 1018.4 |
| 20260506143001 | 10 | 178 | 1.6 | 6.4 | 0.00 | 0.00 | 0.00 | 47 | 1018.3 |
| 20260506142001 | 8 | 178 | 3.2 | 6.4 | 0.00 | 0.00 | 0.00 | 50 | 1018.4 |
| 20260506135002 | 5 | 60 | 1.6 | 4.8 | 0.00 | 0.00 | 0.00 | 61 | 1017.9 |
| 20260506134003 | 5 | 178 | 1.6 | 4.8 | 0.00 | 0.00 | 0.00 | 62 | 1017.8 |
| 20260506133003 | 4 | 178 | 3.2 | 6.4 | 0.00 | 0.00 | 0.00 | 62 | 1017.9 |
| 20260506132002 | 3 | 65 | 3.2 | 6.4 | 0.00 | 0.00 | 0.00 | 62 | 1017.9 |
| 20260506125003 | 3 | 73 | 1.6 | 4.8 | 0.00 | 0.00 | 0.00 | 62 | 1017.5 |
| 20260506124002 | 3 | 65 | 1.6 | 6.4 | 0.00 | 0.00 | 0.00 | 63 | 1017.4 |
| 20260506122003 | 3 | 84 | 3.2 | 6.4 | 0.00 | 0.00 | 0.00 | 60 | 1017.3 |
| 20260506121002 | 3 | 81 | 3.2 | 6.4 | 0.00 | 0.00 | 0.00 | 60 | 1017.1 |
| 20260506120004 | 3 | 72 | 3.2 | 6.4 | 0.00 | 0.00 | 0.00 | 60 | 1017.1 |
| 20260506115001 | 3 | 80 | 3.2 | 6.4 | 0.00 | 0.00 | 0.00 | 60 | 1017.1 |
| 20260506114000 | 3 | 77 | 4.8 | 9.7 | 0.00 | 0.00 | 0.00 | 61 | 1017.1 |
| 20260506113001 | 3 | 79 | 3.2 | 6.4 | 0.00 | 0.00 | 0.00 | 61 | 1017.3 |
| 20260506112002 | 3 | 71 | 3.2 | 6.4 | 0.00 | 0.00 | 0.00 | 61 | 1017.2 |
| 20260506111000 | 3 | 83 | 3.2 | 6.4 | 0.00 | 0.00 | 0.00 | 60 | 1017.2 |
| 20260506110005 | 4 | 79 | 3.2 | 6.4 | 0.00 | 0.00 | 0.00 | 59 | 1017.0 |
| 20260506102002 | 4 | 108 | 6.4 | 11.3 | 0.00 | 0.00 | 0.00 | 57 | 1016.5 |
| 20260506101001 | 5 | 116 | 4.8 | 9.7 | 0.00 | 0.00 | 0.00 | 56 | 1016.6 |
| 20260506100004 | 5 | 96 | 3.2 | 4.8 | 0.00 | 0.00 | 0.00 | 56 | 1016.5 |
| 20260506094000 | 5 | 112 | 3.2 | 4.8 | 0.00 | 0.00 | 0.00 | 55 | 1016.4 |
| 20260506093002 | 5 | 84 | 3.2 | 6.4 | 0.00 | 0.00 | 0.00 | 55 | 1016.6 |
| 20260506092001 | 5 | 93 | 3.2 | 6.4 | 0.00 | 0.00 | 0.00 | 55 | 1016.4 |
| 20260506091001 | 5 | 85 | 1.6 | 6.4 | 0.00 | 0.00 | 0.00 | 54 | 1016.4 |
| 20260506083001 | 5 | 178 | 4.8 | 9.7 | 0.00 | 0.00 | 0.00 | 51 | 1016.4 |
| 20260506082001 | 5 | 178 | 3.2 | 8.0 | 0.00 | 0.00 | 0.00 | 52 | 1016.3 |
| 20260506081001 | 5 | 178 | 1.6 | 4.8 | 0.00 | 0.00 | 0.00 | 52 | 1016.3 |
| 20260506073001 | 6 | 119 | 3.2 | 6.4 | 0.00 | 0.00 | 0.00 | 49 | 1016.4 |
| 20260506072001 | 6 | 82 | 4.8 | 11.3 | 0.00 | 0.00 | 0.00 | 49 | 1016.5 |
| 20260506071001 | 6 | 88 | 3.2 | 4.8 | 0.00 | 0.00 | 0.00 | 49 | 1016.5 |
| 20260506062003 | 7 | 178 | 3.2 | 6.4 | 0.00 | 0.00 | 0.00 | 48 | 1016.3 |
| 20260506061001 | 7 | 178 | 3.2 | 6.4 | 0.00 | 0.00 | 0.00 | 47 | 1016.2 |